Hooper Bay, AK

6:58 AM AKST on December 14, 2019 (GMT -0900)
Hooper Bay

Weather History for PAHP - November, 2019

Change the Weather History Date:

Friday, November 15, 2019

  Actual Average Record
Temperature  
Mean Temperature 17 °F -  
Max Temperature 19 °F 26 °F 50 °F (2007)
Min Temperature 15 °F 19 °F 3 °F (1999)
Degree Days  
Heating Degree Days 48    
Moisture  
Dew Point 11 °F    
Average Humidity 82    
Maximum Humidity 88    
Minimum Humidity 73    
Precipitation  
Precipitation 0.00 in - - ()
Sea Level Pressure  
Sea Level Pressure 29.34 in    
Wind  
Wind Speed 18 mph (NE)    
Max Wind Speed 22 mph    
Max Gust Speed 28 mph    
Visibility 7 miles    
Events Snow    
Averages and records for this station are not official NWS values.
T = Trace of Precipitation, MM = Missing Value Source: NWS Daily Summary

Daily Weather History Graph

Daily Weather History Graph

Search for Another Location

Airport or City:

Astronomy

Nov. 15, 2019 Rise Set
Actual Time 10:12 AM AKST 5:24 PM AKST
Civil Twilight 9:20 AM AKST 6:17 PM AKST
Nautical Twilight 8:25 AM AKST 7:11 PM AKST
Astronomical Twilight 7:34 AM AKST 8:03 PM AKST
Moon 7:28 PM AKST (11/15) 2:04 PM AKST (11/15)
Length of Visible Light 8h 57m
Length of Day
7h 12m
Waning Gibbous, 89% of the Moon is Illuminated
Nov 15
Waning Gibbous
Nov 19
Last Quarter
Nov 26
New
Dec 3
First Quarter
Dec 11
Full

Hourly Weather History & Observations

Time (AKST) Temp. Windchill Dew Point Humidity Pressure Visibility Wind Dir Wind Speed Gust Speed Precip Events Conditions
12:35 AM 17.6 °F 0.5 °F 12.2 °F 79% 29.33 in 2.5 mi NE 21.9 mph 26.5 mph 0.00 in Snow Light Snow
12:43 AM 17.6 °F 1.3 °F 12.2 °F 79% 29.33 in 4.0 mi NE 19.6 mph 26.5 mph 0.00 in Snow Light Snow
12:56 AM 16.0 °F -1.7 °F 12.9 °F 88% 29.33 in 2.5 mi NE 21.9 mph - 0.00 in Snow Light Snow
1:27 AM 15.8 °F -0.6 °F 12.2 °F 86% 29.34 in 2.5 mi NE 18.4 mph - 0.00 in Snow Light Snow
1:42 AM 15.8 °F -0.6 °F 12.2 °F 86% 29.34 in 3.0 mi NE 18.4 mph - 0.00 in Snow Light Snow
1:48 AM 15.8 °F 0.3 °F 12.2 °F 86% 29.34 in 4.0 mi NE 16.1 mph - 0.00 in Snow Light Snow
1:56 AM 16.0 °F -1.7 °F 12.9 °F 88% 29.35 in 4.0 mi NE 21.9 mph - 0.00 in Snow Light Snow
2:17 AM 15.8 °F -1.1 °F 12.2 °F 86% 29.34 in 2.0 mi NE 19.6 mph - 0.00 in Snow Light Snow
2:51 AM 15.8 °F 1.4 °F 12.2 °F 86% 29.34 in 1.8 mi NE 13.8 mph - 0.00 in Snow Light Snow
2:56 AM 16.0 °F 0.1 °F 12.9 °F 88% 29.34 in 1.5 mi NE 17.3 mph - 0.00 in Snow Light Snow
3:03 AM 15.8 °F -0.6 °F 12.2 °F 86% 29.33 in 2.0 mi NE 18.4 mph - 0.00 in Snow Light Snow
3:35 AM 15.8 °F -0.6 °F 12.2 °F 86% 29.33 in 1.8 mi NE 18.4 mph - 0.00 in Snow Light Snow
3:51 AM 15.8 °F 0.9 °F 12.2 °F 86% 29.33 in 2.0 mi NE 15.0 mph - 0.00 in Snow Light Snow
3:56 AM 16.0 °F -0.4 °F 12.9 °F 88% 29.33 in 1.8 mi NE 18.4 mph - 0.00 in Snow Light Snow
4:03 AM 15.8 °F -1.5 °F 12.2 °F 86% 29.33 in 1.8 mi NE 20.7 mph - 0.00 in Snow Light Snow
4:31 AM 15.8 °F 0.9 °F 12.2 °F 86% 29.33 in 1.8 mi NE 15.0 mph - 0.00 in Snow Light Snow
4:56 AM 16.0 °F 2.3 °F 12.9 °F 88% 29.32 in 5.0 mi ENE 12.7 mph - 0.00 in Snow Light Snow
5:04 AM 15.8 °F 2.7 °F 12.2 °F 86% 29.32 in 8.0 mi ENE 11.5 mph - 0.00 in Snow Light Snow
5:38 AM 15.8 °F -0.6 °F 12.2 °F 86% 29.34 in 9.0 mi NE 18.4 mph 23.0 mph 0.00 in Snow Light Snow
5:51 AM 15.8 °F -0.6 °F 10.4 °F 79% 29.32 in 10.0 mi NE 18.4 mph - 0.00 in   Partly Cloudy
5:56 AM 16.0 °F -1.3 °F 10.9 °F 81% 29.32 in 10.0 mi NE 20.7 mph - 0.00 in   Scattered Clouds
6:56 AM 16.0 °F 2.3 °F 10.0 °F 77% 29.32 in 10.0 mi NE 12.7 mph - N/A   Overcast
7:56 AM 15.1 °F 0.5 °F 9.0 °F 77% 29.31 in 10.0 mi NE 13.8 mph - N/A   Overcast
8:56 AM 15.1 °F -0.6 °F 10.0 °F 80% 29.31 in 9.0 mi ENE 16.1 mph - 0.00 in Snow Light Snow
9:26 AM 15.8 °F -0.6 °F 10.4 °F 79% 29.31 in 5.0 mi NE 18.4 mph - 0.00 in Snow Light Snow
9:56 AM 16.0 °F 0.6 °F 10.9 °F 81% 29.33 in 9.0 mi ENE 16.1 mph - 0.00 in Snow Light Snow
10:25 AM 15.8 °F -1.9 °F 10.4 °F 79% 29.33 in 9.0 mi ENE 21.9 mph 27.6 mph 0.00 in   Overcast
10:56 AM 15.1 °F -2.5 °F 10.0 °F 80% 29.32 in 10.0 mi ENE 20.7 mph - 0.00 in   Overcast
11:18 AM 15.8 °F -0.2 °F 10.4 °F 79% 29.34 in 10.0 mi NE 17.3 mph 24.2 mph N/A   Overcast
11:56 AM 15.1 °F -2.0 °F 10.0 °F 80% 29.34 in 8.0 mi ENE 19.6 mph 26.5 mph 0.00 in Snow Light Snow
12:41 PM 15.8 °F -1.1 °F 8.6 °F 73% 29.34 in 10.0 mi ENE 19.6 mph - 0.00 in   Overcast
12:56 PM 16.0 °F -0.4 °F 9.0 °F 74% 29.35 in 10.0 mi NE 18.4 mph 23.0 mph 0.00 in   Overcast
1:56 PM 17.1 °F 2.0 °F 10.0 °F 74% 29.35 in 10.0 mi NE 16.1 mph - N/A   Overcast
2:56 PM 17.1 °F 1.5 °F 10.9 °F 77% 29.33 in 10.0 mi ENE 17.3 mph - N/A   Overcast
3:56 PM 17.1 °F 3.0 °F 10.9 °F 77% 29.34 in 10.0 mi NE 13.8 mph - N/A   Overcast
4:12 PM 17.6 °F 4.3 °F 12.2 °F 79% 29.34 in 10.0 mi NE 12.7 mph - N/A   Overcast
4:56 PM 18.0 °F 4.8 °F 12.0 °F 78% 29.34 in 10.0 mi NE 12.7 mph - N/A   Mostly Cloudy
5:56 PM 18.0 °F 4.2 °F 12.9 °F 81% 29.34 in 10.0 mi ENE 13.8 mph 20.7 mph N/A   Overcast
6:56 PM 16.0 °F 5.3 °F 10.9 °F 81% 29.34 in 10.0 mi ENE 8.1 mph - N/A   Clear
7:56 PM 15.1 °F 5.2 °F 10.9 °F 84% 29.35 in 8.0 mi NE 6.9 mph - N/A   Clear
8:56 PM 19.0 °F 6.1 °F 14.0 °F 81% 29.36 in 10.0 mi NE 12.7 mph - N/A   Clear
9:56 PM 18.0 °F 3.1 °F 10.9 °F 74% 29.36 in 10.0 mi ENE 16.1 mph - 0.00 in   Mostly Cloudy
10:56 PM 16.0 °F 4.4 °F 9.0 °F 74% 29.37 in 10.0 mi NE 9.2 mph - N/A   Mostly Cloudy
11:56 PM 16.0 °F 2.3 °F 10.0 °F 77% 29.37 in 10.0 mi NE 12.7 mph - N/A   Mostly Cloudy